RH
99 98 97 98 98 98 99 99 99 99 100 100 100 100 100 100 100 100 100 100 99 100 99 100 101 99 101 98 94 91 87 83 77 91 88 38 5 7 20 28 23 24 22 18 22 24 26 29 29 27 29 31 30 30 27 25 21 15 17 20 20 20 17 16 14 12 12 11 10 8 8 10 10 17 29 39 46 55 67 80 86 85 83 83 86 90 92 97
100 100 99 100 99 100 100 100 100 100 100 100 100 100 100 100 100 100 100 100 100 100 100 100 100 100 101 94 86 81 80 84 91 97 63 17 11 13 17 29 31 34 27 22 25 25 27 27 28 29 30 33 30 27 25 23 19 16 19 20 18 18 14 11 11 10 10 10 9 8 8 8 10 13 23 44 59 68 83 93 95 97 95 92 91 92 95 98
98 99 99 100 100 100 100 99 99 99 99 99 100 100 100 100 100 100 100 100 100 99 100 100 99 101 99 91 79 73 81 90 90 75 36 16 24 15 16 32 34 37 33 25 21 21 25 24 25 28 30 33 30 26 25 21 17 15 16 18 17 13 12 11 10 9 9 9 8 8 8 7 8 8 22 48 62 74 91 96 98 101 99 97 94 92 96 97
92 93 95 97 97 97 97 97 98 99 99 99 99 99 100 100 100 100 100 100 100 100 100 100 100 100 98 88 70 71 88 85 65 44 21 15 23 17 16 26 33 37 34 29 21 17 21 21 22 26 27 32 31 26 26 21 15 14 14 15 15 11 12 11 9 10 9 9 9 8 9 9 7 6 22 49 66 77 86 89 93 97 96 96 94 92 95 96
86 88 91 92 92 93 95 96 98 100 99 100 99 99 98 98 99 99 99 99 99 100 99 99 100 99 96 79 65 80 80 51 38 30 19 16 16 16 13 15 28 36 34 31 22 17 20 20 21 24 26 30 31 28 29 23 14 14 13 13 12 10 12 10 9 10 9 9 9 8 8 7 7 6 13 34 61 74 74 79 86 88 88 89 91 92 94 96
84 87 90 90 92 94 95 98 100 100 100 100 99 100 99 99 100 99 100 99 100 100 100 100 98 98 92 70 67 84 60 24 26 23 14 17 15 12 11 11 23 35 34 26 20 18 19 20 21 24 26 28 31 31 30 21 14 16 15 12 11 10 11 10 9 9 9 10 8 9 8 7 9 6 12 30 50 61 63 72 81 82 82 82 87 91 94 97
87 90 92 92 94 96 98 99 100 100 100 100 100 100 100 100 100 100 100 99 100 98 99 100 97 99 87 70 73 83 72 43 24 18 17 21 15 11 13 14 22 34 30 20 20 20 19 21 22 24 25 27 29 28 25 19 15 16 15 12 10 10 10 9 10 9 9 10 8 9 6 8 8 4 25 46 50 58 65 71 78 79 79 81 87 92 93 95
89 91 93 94 96 97 98 99 100 100 100 100 100 99 100 100 99 100 100 100 100 98 100 97 96 99 84 79 82 74 71 49 17 14 22 21 16 12 17 21 27 32 26 19 19 19 20 21 21 22 25 27 27 24 21 20 18 16 15 13 10 9 9 8 10 10 10 9 8 10 7 9 8 6 35 56 53 63 70 72 78 78 81 85 91 92 92 93
90 92 93 95 96 97 99 99 100 100 100 100 99 100 100 99 101 100 99 101 97 94 100 98 95 93 80 88 88 54 34 26 19 21 21 21 17 13 20 26 31 30 23 20 17 18 19 20 21 20 23 24 22 21 19 20 20 16 13 12 10 9 8 8 9 9 9 9 7 9 8 8 8 8 31 50 52 64 70 74 80 80 86 90 91 93 92 94
90 92 94 95 97 99 100 99 100 100 100 100 98 100 93 84 86 89 90 93 92 87 94 100 94 87 81 87 82 45 20 17 24 29 26 24 16 15 23 24 29 30 23 21 19 18 18 19 21 18 20 20 18 19 17 17 17 13 11 11 9 8 8 7 8 9 8 9 8 8 9 8 8 5 18 37 48 65 74 77 80 79 88 90 91 94 91 93
91 93 95 97 98 98 99 100 99 96 97 95 90 86 75 59 55 64 70 73 83 82 87 100 94 89 89 91 81 41 13 17 25 28 28 24 17 17 20 16 22 25 20 21 20 18 17 17 18 18 19 17 14 15 13 13 12 10 10 9 8 8 8 8 7 9 8 9 9 8 8 8 8 4 13 32 46 67 78 79 79 79 87 91 91 94 92 92
92 94 96 98 99 100 95 85 75 71 70 64 59 56 51 43 36 44 52 56 78 86 87 98 95 94 95 94 81 34 6 19 24 19 18 20 18 16 15 12 14 14 13 19 21 16 16 16 17 21 20 15 13 13 12 11 9 10 10 9 10 9 8 9 7 8 8 9 9 8 10 11 9 6 11 28 45 66 80 80 79 79 86 92 93 95 94 91
94 96 97 98 96 92 75 51 40 38 37 34 35 33 28 28 27 33 42 53 81 94 92 96 94 95 96 82 56 22 11 19 18 16 17 17 18 17 16 13 12 11 8 13 15 12 15 17 18 21 19 15 14 11 9 11 11 12 11 10 11 11 12 11 9 9 8 9 9 8 13 17 13 7 8 24 45 63 78 81 78 81 87 92 95 96 94 92
92 90 89 88 77 65 47 28 24 25 25 26 26 22 16 18 21 25 39 58 81 89 88 95 95 96 101 76 35 19 22 26 28 30 27 22 20 22 19 14 14 13 9 9 9 10 14 15 16 19 16 14 12 11 12 13 13 12 12 14 14 14 16 13 10 11 8 10 9 8 15 18 14 9 7 20 42 59 73 79 77 81 86 90 94 95 95 94
79 73 65 61 50 42 31 21 21 22 23 24 18 14 11 11 16 23 42 65 79 81 82 92 93 94 104 79 36 25 29 37 42 31 28 28 21 23 22 16 15 14 12 10 9 10 12 13 16 18 15 13 11 13 17 16 17 15 15 24 23 16 17 12 10 11 9 9 8 8 15 17 11 10 7 11 32 52 65 74 76 80 84 88 93 95 95 94
52 49 40 36 33 30 24 19 21 21 23 23 14 10 10 10 15 28 49 70 78 78 83 89 87 88 91 66 35 29 31 40 40 21 22 28 22 23 21 18 18 16 15 12 12 13 13 14 16 16 13 13 14 15 19 22 28 26 21 29 29 20 19 14 10 10 9 9 8 9 15 17 12 10 8 6 20 43 57 70 76 77 82 86 91 94 94 94
27 26 24 23 21 21 20 19 22 27 27 19 12 8 8 11 16 31 58 77 77 74 77 81 85 85 70 45 32 32 29 30 28 18 18 21 21 22 20 19 19 18 17 14 15 14 14 16 16 21 19 17 19 19 22 25 30 31 24 29 30 23 20 16 13 11 8 9 9 8 11 15 14 12 9 4 15 39 52 65 75 75 80 85 87 92 93 95
17 16 17 17 17 18 19 21 31 47 42 22 16 12 10 23 34 50 71 84 87 84 81 82 82 70 51 43 40 35 29 25 24 21 17 15 17 21 21 20 18 18 18 17 18 16 16 19 20 27 27 22 22 21 26 26 24 27 26 29 31 24 21 17 14 10 8 9 10 11 11 12 12 10 9 4 13 38 50 59 72 73 79 84 85 91 93 94
17 17 15 18 20 20 22 29 46 64 53 23 12 13 29 57 69 76 82 84 91 82 70 79 74 42 28 36 34 28 27 23 23 22 18 16 15 18 19 18 18 18 20 22 24 19 18 22 23 26 28 27 26 23 22 20 19 23 24 27 28 24 21 16 12 10 8 9 9 11 12 10 9 8 10 7 12 32 45 55 67 71 77 83 85 91 93 93
20 15 17 24 26 25 30 40 52 62 58 46 37 31 43 58 56 70 88 90 90 69 45 57 63 37 25 29 24 23 24 21 22 23 20 18 14 15 16 17 20 20 23 27 27 25 22 26 28 26 29 31 31 30 25 21 19 19 20 22 22 22 21 15 12 11 8 11 12 11 11 11 10 9 10 10 11 22 39 54 65 71 77 82 86 91 93 93
19 15 24 30 33 34 36 44 48 49 58 75 76 55 40 31 20 35 62 67 69 65 48 43 48 43 33 27 23 23 25 24 23 22 21 19 14 16 18 19 24 27 28 25 26 28 24 28 31 27 30 33 32 36 36 31 25 22 21 22 22 22 21 16 14 13 10 12 16 12 11 11 9 10 9 10 11 16 36 56 62 69 75 77 84 90 91 92
19 20 27 34 40 38 36 43 40 39 56 76 87 77 52 31 17 17 28 34 38 50 55 46 43 44 36 30 28 25 30 33 28 22 19 17 16 18 21 22 27 32 29 24 25 27 26 30 29 24 29 34 33 35 37 35 33 29 25 25 26 23 20 18 16 17 14 16 22 16 13 13 10 11 10 11 12 14 34 54 58 64 72 75 81 89 92 94
24 24 29 39 42 37 37 37 32 44 62 70 79 76 50 28 26 29 32 36 33 34 44 47 46 46 39 35 31 29 35 36 30 24 16 15 18 18 22 25 27 29 27 27 28 29 32 30 23 22 27 31 32 33 34 36 37 36 30 29 29 23 21 21 20 22 19 20 25 20 17 15 12 12 11 11 13 18 34 49 54 59 65 71 79 86 92 96
27 25 33 39 38 39 35 28 40 58 61 63 60 45 30 26 32 39 42 47 44 33 29 32 34 36 34 29 26 29 34 29 26 24 15 15 19 19 23 25 27 27 24 25 27 29 28 21 18 21 24 28 30 30 33 36 35 36 36 31 27 23 21 22 25 27 25 23 25 24 17 17 23 18 11 14 16 23 41 53 56 59 61 70 82 89 92 93
29 29 35 38 42 39 24 34 60 56 47 54 40 22 28 35 32 35 46 61 61 43 29 23 23 23 21 22 23 26 29 26 23 20 15 15 19 22 23 21 23 28 26 22 23 27 23 18 18 19 21 23 24 27 31 36 36 34 38 34 25 22 20 23 27 27 27 25 27 25 13 24 45 28 9 16 15 22 49 63 60 61 65 76 90 96 94 90
33 36 38 42 48 37 30 54 63 45 45 45 28 28 40 38 33 33 52 80 79 56 37 26 23 20 15 19 20 20 27 28 20 17 15 15 17 20 23 22 20 24 23 18 20 23 19 17 18 19 23 21 21 23 22 32 38 35 41 38 26 23 22 27 27 24 30 31 28 27 21 34 49 34 23 25 16 20 47 63 63 62 68 83 96 99 94 88
38 41 43 46 51 56 66 68 54 49 52 38 32 44 42 33 29 29 54 79 69 51 40 26 21 19 14 17 16 19 31 28 18 16 16 17 16 16 23 25 20 19 17 15 19 21 17 17 19 20 23 22 22 21 19 28 33 37 45 37 26 25 23 25 24 24 33 32 26 29 32 35 36 39 41 30 19 26 46 62 66 64 72 90 100 96 88 84
37 41 50 48 47 67 84 78 74 72 52 38 44 47 37 29 24 38 67 66 38 29 30 21 18 16 13 15 14 19 27 24 22 20 14 16 17 17 24 24 18 18 15 14 23 26 22 20 19 20 22 24 22 17 18 22 26 36 39 27 22 22 21 22 21 25 30 28 28 34 34 31 42 56 46 29 23 24 46 71 71 70 83 97 100 93 84 82
36 42 53 55 48 55 73 86 86 64 41 43 51 43 34 29 32 56 75 59 32 23 21 20 21 18 17 17 15 16 19 18 22 22 16 16 18 18 22 22 17 17 14 16 23 26 23 18 15 16 20 24 20 16 17 19 25 33 29 22 21 18 20 20 18 24 28 26 31 40 36 26 47 68 45 31 30 21 48 82 77 79 92 97 97 92 88 87
36 41 51 66 65 59 72 80 57 32 34 49 51 41 35 41 62 77 68 51 38 23 19 24 24 22 21 17 17 18 17 18 18 17 18 19 18 17 19 18 16 19 21 20 21 21 16 15 16 14 15 19 18 17 17 17 22 26 22 19 17 21 24 20 25 32 30 37 43 48 42 23 37 64 49 36 35 32 63 90 84 90 98 95 96 94 92 93
34 37 49 73 81 74 77 66 35 25 40 51 50 41 39 52 75 84 63 42 38 28 20 24 23 24 25 20 22 22 18 19 18 17 23 23 21 22 22 23 21 25 31 25 24 26 19 14 16 14 14 14 14 16 16 16 17 16 20 19 19 37 41 28 33 31 27 49 58 51 42 25 33 56 54 50 48 47 68 85 88 98 100 95 94 92 93 94
30 33 40 60 76 79 73 49 28 34 47 54 53 55 62 59 59 75 64 41 45 38 21 22 21 21 29 28 25 23 21 24 22 21 25 26 30 30 27 34 34 31 40 40 33 33 28 21 17 13 15 14 13 19 18 17 16 12 20 25 24 37 42 42 48 39 37 51 53 47 35 29 46 54 49 56 59 58 66 75 83 95 98 93 91 92 92 94
29 31 32 43 57 61 54 34 28 46 57 56 58 71 79 64 54 66 56 38 43 33 17 22 16 11 26 32 27 25 23 25 23 22 25 26 33 33 25 32 33 28 43 49 36 29 28 27 21 13 15 14 14 21 22 24 23 15 19 27 30 36 37 46 54 44 39 38 40 45 29 30 58 58 50 60 64 65 69 69 77 89 95 93 90 92 92 93
27 33 37 44 50 48 42 37 42 56 62 62 69 75 65 55 61 65 52 40 34 23 18 19 12 10 18 26 35 33 25 32 34 25 24 29 35 40 33 27 25 25 32 35 35 35 31 34 32 19 15 15 14 18 20 27 28 19 20 22 31 49 48 46 50 41 38 39 41 42 27 36 63 58 55 64 64 67 71 72 80 87 90 91 91 92 91 93
35 43 40 40 48 45 36 41 53 60 67 75 77 73 63 60 68 67 57 44 26 19 19 11 11 18 16 20 35 31 27 54 67 43 31 35 36 41 39 27 25 26 25 33 44 37 26 35 37 21 14 14 13 16 13 17 25 24 25 21 22 40 46 47 55 54 54 50 39 38 40 51 61 54 56 64 63 71 77 79 86 88 89 91 94 94 91 91
44 53 45 38 47 46 34 43 59 60 73 85 71 65 74 70 60 52 43 31 20 20 18 13 15 20 22 26 30 26 28 55 74 57 42 40 38 38 35 26 24 21 23 40 49 32 22 36 37 19 17 15 10 17 13 10 28 35 26 22 23 29 34 44 53 52 53 46 39 51 59 59 59 55 60 68 71 78 82 83 88 89 90 92 94 95 92 90
50 62 63 51 48 47 42 48 58 60 75 92 81 73 75 59 40 35 28 23 23 19 15 19 22 20 24 28 28 27 29 45 58 51 48 52 51 48 38 28 25 20 19 28 35 33 26 31 34 18 14 18 11 13 14 9 24 33 22 19 24 23 32 52 59 51 48 44 49 68 71 69 75 70 69 79 84 90 92 88 89 89 89 94 97 95 92 92
64 76 76 58 42 43 49 50 55 65 78 92 94 87 73 50 33 28 24 21 20 16 15 22 25 23 22 27 31 25 25 46 55 48 53 60 58 59 53 43 36 28 26 23 26 37 30 28 43 32 14 20 18 10 16 18 15 15 16 21 27 31 42 52 49 46 51 47 51 70 79 81 82 77 82 89 87 95 98 92 93 94 95 99 100 97 95 96
80 87 78 55 39 44 53 52 57 71 83 92 94 79 59 47 35 28 24 21 18 19 21 21 21 25 24 26 31 25 27 53 61 52 56 59 54 58 59 56 51 38 30 27 27 35 32 28 46 45 21 21 33 29 28 33 26 16 18 26 36 53 60 50 42 49 60 62 60 67 79 84 77 75 90 94 85 91 98 96 97 99 99 100 99 99 99 99
84 86 78 53 42 50 54 56 66 77 84 91 90 71 53 45 37 30 27 23 22 25 26 20 17 27 30 25 27 26 25 45 62 59 60 63 59 59 57 54 58 51 35 32 37 40 40 36 45 52 31 25 50 50 29 33 37 26 24 29 34 47 50 41 42 47 56 73 78 67 68 81 80 77 90 98 92 91 93 95 97 96 97 100 98 99 99 98
77 73 73 53 45 51 54 63 75 80 84 87 81 65 52 46 40 36 31 27 28 30 27 21 18 26 32 27 28 28 20 31 54 63 66 67 62 64 63 50 51 53 43 43 47 43 49 53 54 55 39 35 55 47 24 31 40 36 39 41 40 43 41 39 45 48 59 79 82 71 75 87 87 85 92 99 97 93 90 92 97 97 97 99 98 97 97 96
79 74 67 49 43 44 58 80 82 75 78 78 68 55 48 45 41 38 34 31 32 30 25 23 23 27 30 27 26 27 23 26 40 57 67 65 58 59 58 45 42 45 44 51 50 47 62 66 55 53 47 42 42 33 27 32 35 41 48 49 54 55 49 51 54 54 62 69 68 74 87 88 86 91 95 95 96 95 91 90 95 98 97 98 99 97 97 97
77 74 58 44 42 45 70 92 84 74 73 65 57 51 47 45 42 39 38 35 34 33 29 25 26 27 26 26 25 25 28 28 31 49 63 58 53 53 49 46 48 48 50 57 51 49 65 68 60 65 66 56 41 32 36 35 35 48 56 58 65 61 53 55 56 58 64 65 67 79 89 87 89 94 94 92 93 93 93 92 94 96 94 94 95 96 99 99
73 75 65 51 41 46 71 81 74 77 74 64 63 59 51 47 43 42 44 41 36 36 35 30 28 28 27 27 26 24 29 31 32 43 53 51 51 52 50 51 53 54 57 60 53 48 54 65 72 71 62 51 41 39 49 51 46 51 60 63 63 65 68 59 49 58 64 57 56 68 83 91 91 92 93 92 93 93 96 96 94 96 96 94 94 94 97 98
76 74 67 53 41 53 75 74 70 78 75 70 76 71 61 53 45 44 46 43 37 35 38 37 33 36 39 36 33 34 37 37 36 42 50 52 49 43 44 49 48 52 57 58 58 57 58 72 85 81 69 63 60 61 68 70 62 58 64 67 61 70 78 60 50 62 62 55 58 67 87 100 95 94 97 95 95 97 97 96 96 97 96 93 91 89 90 92
71 63 56 51 54 66 73 68 71 78 76 79 82 73 68 63 50 44 43 41 37 34 39 42 40 45 51 48 49 54 53 47 45 51 57 58 51 39 38 43 41 48 56 54 56 67 76 81 85 88 89 86 82 74 65 65 72 73 73 71 68 74 76 71 73 74 66 72 81 81 92 102 98 97 99 96 97 99 97 97 98 94 88 84 81 79 78 78
68 59 55 55 63 74 75 69 72 72 67 74 79 68 67 67 55 47 46 43 37 35 42 44 42 51 55 56 65 67 62 59 54 55 59 61 58 48 40 41 44 51 57 53 57 78 91 85 75 75 75 71 68 64 58 57 61 67 72 74 75 76 77 84 89 81 72 77 84 88 95 99 99 100 99 99 99 98 97 98 95 88 79 73 72 72 69 64
60 53 54 52 57 75 80 65 65 69 62 67 75 68 64 65 60 54 49 45 38 36 48 52 46 50 50 52 67 67 65 73 68 62 63 59 58 62 56 51 52 53 54 56 66 84 92 85 77 72 67 61 59 62 66 63 58 64 76 78 78 80 82 89 94 92 88 83 82 91 97 96 99 99 97 98 98 95 96 96 89 77 70 68 68 70 70 64
63 59 62 59 56 70 75 60 62 68 59 63 72 65 60 63 62 53 45 51 55 44 47 57 53 50 46 47 62 66 63 70 70 68 67 56 57 72 67 56 57 58 59 66 75 81 84 85 85 85 81 73 69 69 68 64 64 74 81 79 81 85 84 88 93 94 94 91 90 96 97 97 99 98 97 97 94 92 94 90 80 69 65 68 69 69 72 70
65 61 65 73 69 68 66 60 67 67 58 68 71 55 53 60 58 51 43 52 65 54 46 55 55 52 49 48 56 59 52 51 56 61 59 52 60 69 59 54 62 68 72 79 83 79 78 82 85 90 92 84 77 78 75 69 72 80 83 85 88 88 83 84 87 89 94 99 96 95 98 100 98 93 91 88 84 86 90 87 79 70 65 67 67 65 66 67
53 49 57 77 82 72 55 47 66 76 67 70 70 53 51 54 48 52 53 46 48 50 47 51 55 57 57 53 52 50 43 40 44 48 45 46 53 53 48 50 52 57 71 81 83 82 84 88 87 89 94 89 82 85 82 72 72 80 87 89 92 93 87 82 83 85 91 98 97 96 100 101 95 86 80 79 79 82 84 82 78 73 67 64 64 64 63 62
55 55 62 78 79 66 50 44 64 77 60 56 62 53 49 50 43 52 66 54 40 40 42 44 53 58 58 58 53 45 40 37 34 35 33 34 39 39 39 40 37 49 72 84 87 88 86 88 89 90 94 91 87 89 84 72 74 87 91 88 91 95 89 85 89 88 87 89 92 96 99 95 85 78 76 78 80 81 83 79 74 72 71 68 67 68 68 69
Wind_Speed
10 10 11 11 11 10 11 11 11 11 11 11 11 11 11 11 12 12 13 13 13 14 14 14 14 15 16 16 17 16 19 22 23 15 10 16 16 10 9 7 8 6 8 11 8 4 3 5 7 7 4 2 2 2 3 5 3 2 3 4 4 5 7 3 2 4 4 8 10 13 9 4 3 3 4 6 11 12 12 10 10 13 12 14 20 26 28 28
11 11 11 11 11 11 11 11 11 11 11 12 11 11 11 11 12 12 12 12 13 13 13 14 14 15 15 16 16 16 21 23 20 17 14 13 13 12 12 11 8 5 7 11 12 9 5 5 6 5 3 1 2 2 2 3 4 4 3 4 5 7 6 2 3 8 4 7 10 15 12 1 2 2 3 5 8 13 14 8 11 18 16 17 21 25 25 26
11 11 11 11 12 11 12 11 11 11 11 11 11 12 12 11 12 12 12 12 12 13 13 14 14 15 15 15 14 16 20 17 10 10 8 8 7 13 16 14 9 8 7 7 9 12 8 5 8 6 3 1 3 2 2 3 3 4 4 4 7 8 6 3 6 8 5 7 10 14 11 4 4 4 3 7 8 12 14 8 11 17 17 16 16 20 23 22
11 11 11 11 12 11 11 11 11 11 11 11 11 11 12 12 12 12 12 12 12 12 13 13 14 14 14 14 13 15 16 9 4 5 6 7 6 7 18 17 10 10 8 5 6 11 9 5 6 6 3 2 3 2 3 4 3 2 4 6 8 5 6 8 8 8 7 9 10 9 7 7 7 3 5 9 9 6 10 13 16 20 20 17 14 15 18 18
12 12 12 12 12 12 12 12 12 11 11 11 11 11 12 12 12 12 11 11 12 12 12 12 13 13 13 13 11 12 9 3 2 3 6 8 6 2 15 19 13 11 9 6 5 8 9 4 3 3 2 3 3 2 5 6 3 3 4 7 9 6 7 9 8 8 9 10 9 9 6 4 7 2 4 8 9 6 9 13 19 23 22 20 17 14 14 15
12 12 12 12 12 12 12 12 12 12 12 12 12 12 12 12 12 12 11 11 11 11 11 11 12 12 13 12 8 5 2 2 7 7 9 10 4 1 10 18 15 11 10 8 6 6 5 2 2 3 2 3 4 4 6 5 4 4 6 7 10 8 8 9 9 9 9 9 8 9 6 2 5 6 1 5 7 7 8 12 18 20 20 20 17 15 15 14
12 12 12 12 12 12 12 12 13 13 13 13 13 13 12 12 12 12 12 12 11 11 11 11 11 12 12 10 3 1 2 6 13 9 9 8 2 2 9 16 15 13 12 9 6 5 4 4 4 3 3 4 5 6 7 6 5 5 7 9 11 10 8 10 10 10 9 9 9 7 6 2 1 5 2 4 4 8 9 10 15 16 16 17 14 13 14 14
12 12 12 12 12 13 13 13 13 13 13 13 13 13 13 13 13 12 12 12 12 11 11 10 10 10 11 8 2 2 1 10 14 9 7 5 4 5 12 15 16 15 13 12 10 7 4 4 5 3 3 6 5 5 7 6 5 6 8 10 10 10 9 10 10 10 10 8 7 7 8 6 5 2 3 5 6 11 12 12 14 15 14 14 14 14 12 12
13 13 13 13 13 13 13 14 14 14 14 14 14 14 14 14 13 13 12 12 12 11 10 10 10 7 7 5 2 4 5 9 12 10 8 8 7 8 12 14 18 18 13 13 12 8 5 4 6 5 4 6 6 7 6 3 4 6 8 9 9 10 9 10 10 10 10 6 5 6 7 8 5 2 3 5 9 12 13 14 14 15 14 13 13 13 12 12
13 14 14 14 14 14 14 14 14 15 15 14 15 14 14 14 13 13 13 12 12 11 10 8 8 6 5 3 2 1 7 7 10 7 7 10 10 11 13 13 18 20 13 11 13 10 7 6 6 4 4 5 5 7 5 4 5 6 7 8 9 10 9 8 10 12 10 5 6 7 6 7 6 0 1 3 7 13 14 14 14 14 14 13 13 12 12 13
14 14 14 14 14 15 15 15 15 15 15 15 16 15 15 14 14 14 13 13 12 11 9 6 7 4 3 2 3 3 7 5 4 1 2 7 10 12 13 12 17 21 15 9 13 15 13 13 8 1 3 4 3 6 6 5 5 6 7 9 11 10 8 6 8 10 7 4 8 9 7 6 2 1 6 7 9 13 16 14 13 13 12 12 13 11 10 11
15 15 15 15 15 15 15 16 16 16 17 17 17 16 16 15 14 14 15 14 12 10 6 5 4 2 2 2 6 12 8 3 1 3 9 9 11 12 11 12 15 19 18 10 11 20 21 18 9 2 4 3 3 4 5 5 4 6 5 6 10 10 8 7 6 8 6 4 7 8 5 5 1 5 7 10 11 12 16 15 12 11 10 11 11 10 9 10
15 15 16 16 16 16 17 17 18 18 18 18 18 17 17 17 16 15 15 13 11 9 5 3 2 1 1 1 11 20 17 14 16 18 19 15 15 18 13 14 14 15 18 14 15 21 22 17 8 5 7 4 5 5 5 5 3 5 5 3 7 7 7 7 4 6 5 5 7 6 4 6 5 9 7 9 13 13 13 13 11 9 8 9 9 9 10 10
16 16 17 17 17 17 18 18 19 19 19 19 19 19 19 18 17 15 13 11 10 7 3 1 1 3 2 6 17 22 20 22 24 24 19 14 16 20 18 17 15 15 17 17 19 20 19 18 11 7 7 6 6 4 5 5 3 3 6 3 3 3 6 7 3 2 4 5 6 7 4 6 8 11 8 9 14 15 14 12 11 9 8 8 8 9 10 10
17 17 18 18 19 19 19 20 20 20 20 21 20 21 20 19 17 15 10 8 7 4 3 2 3 3 1 9 18 18 14 14 19 22 17 13 15 16 17 19 18 18 19 18 19 18 18 16 9 5 5 5 3 3 4 4 3 1 2 4 3 3 5 8 6 4 5 6 3 7 5 5 7 11 10 8 13 15 14 13 11 11 10 9 8 8 9 9
18 19 20 21 21 21 21 20 20 21 21 22 23 22 21 20 16 12 8 6 6 3 4 2 4 5 1 6 11 12 9 9 11 14 14 16 17 16 19 19 16 17 19 20 20 18 16 11 5 4 3 3 2 1 2 4 5 2 2 4 5 4 5 6 7 5 8 6 1 5 5 4 5 9 11 7 12 15 12 12 13 12 11 10 8 8 9 9
20 21 21 22 22 22 21 21 21 21 22 24 25 24 23 21 15 10 5 2 3 4 6 2 2 4 4 8 9 10 8 8 8 9 14 17 18 20 19 12 9 12 14 17 19 12 8 5 3 3 0 1 2 4 1 4 6 4 1 3 4 4 4 4 7 6 5 6 4 5 4 5 7 8 11 9 12 15 13 13 14 13 11 10 9 8 9 10
21 22 22 22 22 21 21 21 21 21 22 24 25 26 24 17 9 4 2 5 4 3 3 1 1 2 4 6 5 6 3 4 8 10 14 16 17 22 18 8 5 7 5 7 9 5 2 3 1 2 2 2 3 5 4 5 4 4 2 2 4 4 5 5 6 5 2 3 5 6 5 8 12 9 9 10 9 16 16 15 14 13 12 11 9 9 9 10
22 22 22 22 22 21 21 21 20 21 22 25 27 24 15 6 2 4 6 6 4 2 2 3 4 2 4 6 7 8 7 9 11 11 15 16 17 20 16 7 4 5 3 1 4 3 2 2 2 3 5 5 4 4 7 4 0 3 4 3 4 5 6 7 8 6 2 3 6 7 7 9 14 13 11 11 6 13 15 14 12 11 11 9 8 9 9 10
22 23 23 22 22 22 21 20 20 21 21 24 26 18 6 2 4 2 2 3 5 5 5 6 9 7 9 10 12 13 13 13 9 11 19 18 15 12 7 4 3 4 4 4 3 3 4 3 5 7 5 4 5 6 7 6 4 6 6 5 5 5 6 7 9 8 2 3 6 9 10 11 15 15 13 11 5 10 12 12 10 10 10 9 11 11 8 7
23 23 22 22 22 22 21 21 20 20 22 21 19 9 1 1 2 2 2 4 10 11 11 11 13 14 14 15 17 12 8 10 9 8 19 20 13 8 3 3 4 4 5 6 4 1 3 6 8 7 6 6 7 8 7 7 7 7 6 6 7 6 7 9 11 8 2 3 6 9 10 12 16 15 14 11 6 7 12 14 13 13 12 11 12 11 8 7
23 22 22 22 22 22 21 21 20 21 19 15 9 1 4 7 7 5 3 5 10 12 15 15 14 16 18 22 26 15 3 7 12 9 13 16 9 7 4 4 5 4 5 4 2 2 2 6 9 8 7 7 7 7 7 7 7 6 5 5 6 6 6 11 9 4 1 4 5 10 9 12 17 15 14 13 9 7 11 17 18 17 14 12 12 10 10 12
23 22 23 22 23 23 21 22 22 16 10 8 5 6 8 18 18 12 4 4 10 9 12 13 12 13 16 19 22 15 6 8 9 10 11 14 8 7 6 5 6 5 4 5 5 4 4 7 9 9 7 7 7 8 7 6 5 5 5 4 6 7 5 7 5 4 5 4 5 9 8 9 13 11 10 12 7 3 9 18 20 19 18 15 11 8 12 14
23 23 22 22 24 24 22 24 17 6 8 12 12 11 16 25 21 12 3 1 8 7 9 14 12 11 17 14 11 13 10 8 7 9 12 13 6 5 6 5 7 5 4 7 8 7 9 11 6 6 7 8 8 8 6 5 5 5 7 6 7 9 8 7 4 5 7 6 4 3 2 6 7 7 9 8 2 2 6 14 15 14 14 11 9 10 12 14
23 23 22 23 24 24 25 20 7 6 16 15 12 13 19 21 19 9 1 1 6 6 5 11 9 9 16 12 10 11 8 8 8 8 11 14 9 5 4 4 5 6 6 8 7 6 12 13 5 6 8 8 8 9 7 7 5 6 6 9 12 13 11 7 6 6 6 7 4 4 2 6 5 4 8 4 1 2 6 12 15 13 9 9 10 12 13 12
23 22 22 23 23 26 22 9 6 16 18 8 8 17 16 16 21 10 2 3 5 5 2 4 5 7 9 9 10 8 4 5 11 13 12 15 14 8 4 2 2 5 7 6 4 3 9 10 6 8 9 8 9 9 8 7 5 6 6 9 13 12 8 5 5 3 1 5 5 4 2 5 5 2 6 3 2 4 5 9 12 12 9 9 9 11 13 12
23 22 22 22 22 22 14 6 14 18 8 5 14 19 14 15 19 8 2 3 4 4 2 2 3 4 6 9 11 9 2 4 7 11 13 17 14 6 6 5 3 5 5 3 2 3 7 8 7 9 8 7 7 8 9 9 7 6 6 7 9 7 6 5 3 3 3 5 6 2 4 2 3 4 5 1 4 6 7 8 9 9 10 10 9 11 14 13
23 22 22 22 20 16 9 12 16 10 5 12 18 17 15 16 14 4 4 2 3 1 1 2 2 3 3 7 13 9 5 3 5 6 11 21 15 4 5 7 6 8 6 5 5 5 5 8 9 9 8 6 7 10 12 9 7 8 8 8 7 6 6 4 3 4 3 2 7 6 2 2 4 5 4 3 5 3 6 10 9 10 11 12 11 12 13 12
22 22 21 21 21 13 6 10 12 7 9 16 17 16 16 13 8 3 4 0 3 2 1 1 1 2 2 6 10 8 5 3 3 3 7 18 16 6 4 7 7 9 7 7 6 6 5 7 8 8 7 7 9 13 13 11 8 7 7 7 4 2 2 2 3 3 1 0 6 8 1 1 4 5 5 4 4 1 3 6 6 10 12 12 13 13 12 10
22 23 22 20 19 10 4 11 14 8 11 15 15 16 12 7 4 4 1 3 3 3 2 1 2 1 4 8 8 8 7 2 2 2 4 7 10 5 3 4 5 4 3 3 5 7 8 7 6 5 7 8 10 9 11 14 11 4 4 4 2 3 2 1 2 2 2 2 7 9 3 3 3 5 3 1 1 3 7 8 8 11 12 11 12 12 12 11
23 23 22 19 17 9 5 9 8 5 10 14 15 11 6 4 4 3 2 3 3 4 1 4 5 4 2 6 6 7 8 4 3 5 3 2 4 3 0 2 3 1 2 3 4 6 8 7 6 5 7 8 7 5 4 7 6 4 3 2 1 4 4 2 3 4 3 4 7 7 4 6 2 4 3 5 6 3 9 12 13 14 12 11 11 11 10 10
23 23 22 20 16 12 10 7 5 5 9 11 11 5 4 4 2 2 3 4 3 2 2 5 7 7 4 2 3 6 7 4 3 5 5 4 5 5 4 4 5 2 3 3 3 5 5 6 6 5 6 5 6 4 3 2 1 3 3 5 2 3 2 1 3 1 3 5 6 5 4 4 4 5 4 8 8 2 7 12 16 18 16 14 12 10 9 9
24 23 20 16 12 14 14 9 5 4 7 9 6 3 6 4 2 5 4 3 2 3 5 7 11 11 5 4 3 2 4 4 3 5 6 5 5 7 7 6 6 5 3 3 2 3 5 6 5 3 5 3 6 4 2 2 1 3 3 4 4 2 0 1 3 1 2 4 6 4 2 1 3 2 7 8 7 3 9 12 12 14 15 14 12 10 9 9
23 20 14 10 9 11 10 5 1 1 6 8 4 4 5 2 4 4 3 3 4 6 9 10 14 14 7 5 3 3 2 2 2 1 4 6 5 5 5 6 5 5 3 2 1 2 3 5 4 3 3 3 5 5 6 5 2 3 4 5 5 4 4 3 3 2 3 4 4 3 1 1 1 3 8 7 6 6 11 14 14 13 11 10 9 8 9 8
20 15 10 9 8 7 3 4 5 2 3 4 5 4 2 3 3 2 2 3 4 6 11 11 10 8 7 4 4 6 4 0 3 3 1 4 6 6 5 5 6 4 4 2 2 2 4 5 7 6 5 6 6 5 6 6 1 4 2 5 3 5 6 2 2 4 3 1 1 2 0 1 3 3 8 7 10 11 9 12 15 15 12 11 9 6 7 7
18 13 7 7 5 1 4 9 9 4 1 4 5 1 3 4 3 2 2 4 5 7 12 11 6 3 5 4 3 1 2 2 1 0 1 1 2 4 5 4 5 5 5 4 3 1 2 5 7 4 2 5 8 7 5 6 3 2 1 2 5 5 7 3 1 1 2 2 1 1 3 2 2 4 10 9 11 12 9 9 11 12 12 13 10 7 7 6
19 13 5 6 5 5 9 12 10 6 2 5 4 3 4 3 3 3 4 7 7 7 7 6 4 3 4 4 4 5 3 2 1 2 1 1 2 2 2 0 2 4 3 3 3 3 3 5 7 4 5 6 6 6 3 5 6 3 1 4 3 1 4 4 1 2 3 2 3 2 4 2 2 2 7 9 8 10 8 7 8 8 10 10 9 8 6 5
17 11 5 4 4 9 12 12 10 5 3 5 1 2 3 2 3 3 5 7 8 6 4 2 3 2 3 5 4 3 3 2 2 3 2 0 1 2 1 2 1 4 1 1 2 2 3 4 8 6 5 5 1 1 3 4 2 4 4 2 3 1 1 1 2 1 2 2 2 3 1 1 1 1 4 7 4 7 8 7 6 6 8 9 8 8 6 4
10 5 4 1 8 12 14 14 9 3 4 3 0 2 2 3 4 5 6 7 6 5 4 3 4 2 3 3 4 3 1 2 2 1 1 0 2 1 1 2 2 3 4 2 2 2 1 2 5 6 3 1 4 3 1 6 6 1 1 1 2 3 3 2 2 3 4 3 1 2 2 1 2 2 0 3 4 4 7 8 7 7 8 8 7 7 5 5
3 2 2 4 11 13 15 14 5 4 3 2 2 3 3 4 6 7 7 6 3 3 4 5 5 3 2 2 4 4 1 2 3 2 1 1 1 3 2 2 1 2 5 6 3 1 2 1 4 6 4 1 1 1 2 2 4 2 1 2 1 2 2 2 0 1 4 4 3 1 0 3 4 1 3 3 3 4 5 7 7 7 8 7 6 6 5 5
0 2 2 6 12 14 13 8 2 2 2 1 2 3 4 4 6 8 6 5 3 3 5 7 7 5 3 1 3 4 3 1 1 3 2 2 3 0 4 3 3 2 4 5 3 1 1 1 3 4 4 2 3 3 5 8 5 4 3 1 1 3 3 2 1 2 2 4 4 4 2 4 4 0 3 4 3 3 5 7 7 6 6 5 4 5 6 6
2 2 3 9 12 12 9 3 1 1 2 2 2 3 5 4 5 7 6 5 2 3 4 6 5 3 1 0 0 2 4 2 1 2 1 2 4 4 4 3 5 5 3 1 1 2 2 2 1 2 3 2 5 3 8 9 7 7 4 3 1 2 3 5 4 2 2 3 2 4 3 2 3 2 3 3 4 5 6 8 8 7 7 7 5 3 4 5
2 2 3 10 12 8 6 2 3 2 1 3 3 4 6 4 4 5 5 4 3 2 3 4 3 1 2 3 2 3 4 2 0 0 0 1 2 5 4 4 5 3 2 2 2 2 1 3 2 2 3 3 2 2 8 8 6 6 4 4 3 1 1 5 5 3 3 2 2 3 2 1 1 2 3 1 3 6 6 6 9 8 7 10 9 7 6 6
1 3 3 6 9 5 4 1 1 2 3 3 4 5 5 3 4 4 3 3 3 3 2 3 4 1 2 4 3 4 5 2 2 3 2 1 3 2 3 5 5 3 1 2 2 1 0 0 1 2 2 3 3 1 4 6 5 3 2 4 4 5 3 1 1 3 3 4 5 5 2 2 2 3 3 2 4 8 7 5 8 9 7 9 9 8 7 6
1 1 2 1 3 2 2 3 4 2 3 3 3 5 5 3 4 4 3 3 4 2 1 3 5 3 4 5 4 6 6 4 2 2 3 3 4 2 1 1 3 3 2 4 4 1 2 2 3 3 3 3 3 4 2 1 2 2 3 5 7 9 8 2 2 4 2 3 3 5 4 2 3 5 4 3 6 9 7 5 8 9 9 10 10 8 8 8
2 1 1 3 3 3 1 1 4 3 1 1 2 4 5 4 4 5 3 2 4 3 2 3 5 5 6 6 5 6 7 5 4 4 4 4 4 4 3 2 4 3 6 9 8 3 3 2 2 5 5 4 5 5 3 3 4 1 1 6 8 7 7 4 3 3 2 2 3 2 6 7 6 7 6 4 6 7 6 7 10 11 11 12 10 9 9 10
2 1 1 0 2 3 2 2 3 2 0 2 2 3 4 4 5 4 3 2 5 5 2 4 7 6 5 5 4 4 6 5 6 5 4 4 3 5 6 7 7 7 7 8 6 4 4 3 3 2 2 2 4 3 1 3 6 5 3 5 6 6 8 8 4 2 2 5 2 3 9 11 8 7 7 6 6 7 6 8 11 11 10 10 10 11 12 12
1 1 2 3 1 0 1 1 2 3 3 2 2 2 4 5 5 4 4 4 5 6 3 4 8 7 6 5 4 2 5 4 5 5 4 4 3 5 6 7 7 8 6 5 4 4 4 2 4 3 2 4 1 2 3 4 5 5 5 5 5 6 8 8 2 2 1 3 4 8 10 9 8 7 6 6 7 9 8 9 12 12 10 11 12 13 13 12
2 1 2 2 2 3 3 1 2 4 5 2 1 3 3 5 6 4 4 4 5 7 5 4 7 7 7 6 5 2 3 3 3 4 3 5 4 3 4 3 3 5 5 5 4 3 4 2 3 3 2 6 7 5 5 5 6 8 7 6 5 5 7 8 5 4 5 3 5 11 9 5 4 5 6 7 7 7 8 9 12 13 12 12 13 13 12 11
1 0 2 2 3 1 2 2 2 4 3 3 2 2 3 4 5 4 4 4 3 5 5 4 6 7 5 6 5 3 1 2 1 4 3 5 5 2 2 1 2 4 4 4 3 3 2 1 2 2 3 5 8 8 7 5 6 8 9 9 9 6 5 7 5 6 8 6 6 10 9 5 4 5 8 8 7 8 9 10 11 10 11 13 13 13 12 11
2 2 0 3 2 3 1 2 2 3 2 3 0 1 3 3 4 3 3 3 2 3 4 4 6 5 4 5 4 1 3 2 4 8 6 4 5 2 1 1 4 5 2 2 1 0 1 1 1 3 3 2 5 7 6 3 5 8 9 10 10 6 1 3 2 3 6 7 7 8 6 3 3 7 10 8 8 10 11 10 10 8 8 12 14 13 12 11
5 2 2 4 2 4 2 1 3 4 2 2 2 2 1 3 4 3 2 4 4 3 3 4 4 3 4 6 6 5 6 5 7 9 7 6 6 2 2 4 5 3 1 2 1 1 2 3 2 2 2 1 5 5 4 2 3 4 5 6 7 5 2 2 4 3 4 7 7 4 3 3 3 8 12 10 9 11 9 8 8 8 8 10 11 11 11 11
Wind_Direction
354 353 349 345 344 342 341 340 340 337 337 335 333 331 325 319 313 311 310 308 310 310 314 316 318 321 322 325 326 328 324 319 317 307 263 268 278 259 231 182 148 159 201 218 216 219 192 185 212 202 189 209 195 227 214 198 201 194 179 207 225 236 244 170 159 246 257 292 308 312 320 69 8 64 110 56 75 89 81 68 67 67 78 99 118 134 138 140
352 351 348 344 343 341 340 339 339 338 336 334 333 332 328 324 317 313 311 309 311 310 313 316 319 322 323 327 331 332 325 319 310 284 267 286 280 243 212 183 160 151 180 197 206 202 169 179 202 177 151 166 230 223 219 212 185 188 181 194 222 229 240 126 201 253 280 296 304 306 300 20 9 253 146 89 96 99 86 65 82 92 100 110 124 134 138 141
351 350 347 344 342 340 339 337 336 335 334 334 332 331 329 327 323 318 315 312 313 312 314 316 319 322 324 327 332 335 325 320 309 272 289 340 288 231 196 182 180 180 190 197 204 202 191 191 184 158 135 204 258 238 246 256 211 204 187 208 237 235 262 278 250 267 287 285 293 297 300 353 324 306 80 111 116 110 113 119 109 116 128 132 136 137 139 142
351 350 346 343 341 339 337 335 334 333 332 332 330 330 329 328 328 323 319 316 315 315 316 318 320 320 323 329 334 335 327 323 293 279 335 351 321 230 189 184 182 184 202 217 213 206 211 221 184 164 153 211 265 241 237 247 235 224 182 217 247 237 269 267 256 273 275 274 283 290 325 350 311 331 103 127 115 112 146 154 141 140 145 143 145 141 141 143
350 348 345 342 339 337 335 334 333 332 332 331 330 329 328 329 327 325 323 319 316 315 316 317 319 321 326 332 337 335 337 3 286 290 353 346 343 268 193 188 187 192 203 212 213 205 221 252 194 186 181 220 250 224 242 234 225 267 228 234 253 244 257 265 261 259 262 272 280 291 317 310 295 359 134 156 143 170 182 165 150 149 153 152 150 145 144 147
348 345 344 340 338 336 333 333 332 332 332 331 330 329 328 327 326 328 327 323 319 316 319 320 323 328 331 336 340 336 2 312 294 292 314 317 330 351 187 187 187 191 202 203 199 193 212 222 176 202 194 228 231 218 250 239 191 244 265 256 255 248 244 261 266 256 259 271 276 282 274 230 326 343 203 165 157 171 173 161 151 151 153 148 143 144 150 153
346 343 341 338 336 334 333 333 331 332 331 330 330 328 327 327 326 329 329 329 325 321 324 324 328 332 334 347 349 7 90 263 280 287 298 292 255 119 160 181 185 186 196 191 184 182 183 176 178 193 200 235 230 224 248 249 201 214 259 263 259 255 244 251 255 254 258 259 262 271 267 219 0 330 357 70 110 137 139 144 143 143 141 136 136 146 152 152
345 343 340 338 336 335 334 333 332 331 330 329 328 327 326 325 325 325 327 330 329 327 326 325 333 336 337 352 12 345 262 257 274 282 280 244 191 154 154 174 185 186 192 192 189 182 176 186 202 191 206 238 233 235 243 253 250 226 244 258 264 262 252 254 248 246 250 246 255 267 275 254 197 171 88 110 126 130 132 133 135 138 136 135 141 148 151 147
343 342 341 339 337 336 334 333 333 330 329 328 325 325 324 323 324 323 324 325 327 327 324 326 331 342 348 346 13 332 261 262 298 289 255 219 194 174 167 175 185 186 190 200 196 183 183 191 206 197 208 239 242 253 247 235 253 231 237 251 259 265 261 263 259 251 251 240 238 256 276 276 250 154 119 153 146 133 133 136 141 142 140 141 146 152 152 147
342 342 340 338 337 336 335 333 332 330 328 327 325 324 322 323 322 320 321 320 323 322 319 327 329 343 1 342 83 318 258 290 327 294 234 216 197 181 182 185 187 188 186 196 197 193 200 205 212 208 231 247 232 251 250 214 243 247 258 266 259 266 268 263 265 260 262 246 204 214 244 268 281 215 171 216 156 136 135 143 153 150 146 150 152 155 154 149
341 340 338 338 336 335 335 333 331 330 328 326 325 322 321 323 324 320 319 318 318 317 316 318 327 354 7 6 119 225 258 289 338 23 240 228 205 194 197 199 192 190 185 184 203 207 212 227 235 236 262 259 237 259 260 232 262 271 272 286 277 279 282 271 271 263 267 255 199 191 221 253 316 220 197 194 166 145 143 152 164 157 150 155 155 156 155 151
340 338 337 337 335 334 334 333 333 331 328 327 325 323 322 322 325 322 317 322 320 310 312 309 317 29 2 345 208 239 252 210 216 305 304 278 240 236 224 212 200 195 192 181 208 213 216 231 237 224 249 272 293 277 272 263 293 293 286 292 285 294 292 273 266 260 260 247 204 180 237 281 294 240 212 176 164 151 147 157 170 161 150 158 160 158 161 156
340 338 337 335 334 333 333 333 333 330 328 327 325 324 323 322 323 320 316 323 320 300 294 288 276 107 34 252 240 259 271 270 275 282 281 275 262 260 243 220 212 207 205 198 209 213 220 235 234 233 249 263 273 268 287 298 322 311 310 290 287 309 293 264 239 260 270 235 193 161 241 275 254 251 237 173 160 152 151 163 170 162 152 160 166 163 164 162
340 338 335 334 333 332 332 333 332 330 329 326 326 325 323 323 320 313 309 314 312 292 256 222 144 114 128 254 270 281 288 284 279 273 265 254 250 257 248 227 216 217 218 214 217 218 229 243 242 245 252 230 237 289 328 325 351 321 314 311 290 278 277 280 260 266 287 250 179 157 226 253 253 260 243 180 164 160 160 168 168 163 161 162 171 174 170 167
339 336 334 333 331 331 332 332 331 329 327 325 325 324 323 324 317 306 301 301 302 274 188 167 179 146 41 276 282 295 300 286 268 256 247 226 225 243 245 227 218 223 224 224 225 229 240 249 249 250 260 240 223 7 347 328 335 319 295 305 296 240 275 298 277 225 240 269 160 160 226 254 250 257 246 192 172 171 164 167 169 168 171 167 174 181 171 165
337 335 334 333 331 331 330 330 329 326 325 324 322 323 324 321 309 291 287 287 288 237 167 154 193 175 325 277 291 306 284 258 254 246 231 211 206 222 232 224 222 226 224 229 233 238 247 252 246 221 245 269 213 115 358 339 327 316 187 245 271 263 291 306 288 246 214 244 238 179 214 256 254 252 250 214 172 175 168 165 170 171 174 171 175 187 173 162
339 337 335 334 331 329 328 328 327 324 322 322 321 322 322 317 297 275 276 282 273 201 163 119 160 170 254 270 295 304 268 246 252 239 227 218 210 217 223 217 225 227 221 228 234 241 249 245 240 239 330 281 175 118 88 276 268 280 264 239 261 253 265 288 294 290 232 223 241 227 215 235 253 247 243 229 171 169 171 168 174 176 176 173 176 191 178 162
341 338 335 333 330 328 328 327 326 324 323 322 322 323 322 316 298 258 159 136 127 141 175 298 99 157 262 260 268 275 269 281 268 237 223 221 215 214 210 201 219 221 213 227 237 244 246 262 290 284 296 229 179 125 181 230 218 228 247 251 276 268 261 268 272 286 280 249 251 253 252 245 256 253 241 239 177 163 174 174 176 178 175 174 176 189 184 170
340 338 335 331 329 328 327 327 326 325 326 322 322 326 324 321 20 113 131 142 131 114 234 232 177 170 269 254 242 260 298 307 280 241 219 214 209 209 204 202 213 195 172 183 259 258 204 281 321 242 252 227 213 183 203 246 33 222 242 228 250 270 269 267 263 264 254 270 265 250 249 241 247 248 242 248 189 160 176 173 172 177 171 169 176 194 187 174
340 338 335 332 330 328 327 327 326 327 330 325 326 336 345 23 34 76 121 182 208 224 249 216 193 223 267 272 271 279 303 307 279 218 212 211 197 196 199 190 185 185 176 161 226 257 154 192 241 227 225 211 227 226 221 255 266 258 280 271 261 267 271 274 273 277 235 227 257 243 242 241 242 242 237 239 182 150 166 161 165 173 170 173 184 194 176 152
338 337 335 333 329 328 328 327 326 328 327 320 324 341 18 5 354 312 311 242 232 228 246 238 209 227 245 254 268 284 324 316 299 232 215 210 182 170 192 166 162 206 206 174 196 274 144 201 236 228 210 204 222 227 223 244 250 251 263 272 279 270 270 275 273 284 240 201 259 250 241 245 241 236 236 231 181 161 165 155 166 176 178 184 188 184 148 108
337 338 336 333 330 330 330 328 327 326 320 313 316 280 244 292 292 303 334 281 262 222 228 243 227 238 244 244 256 266 309 283 289 286 217 195 171 169 192 173 167 212 220 167 167 262 227 232 240 229 211 207 226 232 222 234 241 245 247 259 271 264 278 275 270 311 265 203 262 260 242 243 241 232 232 227 202 190 170 160 170 177 178 186 188 172 127 106
336 337 337 334 332 332 331 329 328 324 322 322 286 228 296 320 313 306 309 287 283 235 216 232 226 240 246 245 247 239 235 236 253 277 215 179 176 178 173 178 181 199 206 178 184 203 238 252 234 220 212 204 232 244 235 244 249 239 238 246 258 256 266 265 276 345 301 245 246 260 248 239 246 240 239 236 216 189 171 170 173 175 177 181 178 147 119 116
335 338 338 336 335 334 332 330 329 332 342 322 280 274 328 337 331 319 298 263 287 266 223 219 212 228 237 236 217 198 215 218 214 253 212 177 169 160 168 183 179 198 202 191 196 197 237 251 215 187 210 206 225 244 236 239 258 247 229 225 248 255 244 245 290 329 317 307 262 252 280 254 254 242 243 255 253 112 160 169 171 175 176 162 126 107 114 119
335 338 338 338 338 334 332 333 334 336 331 312 279 312 342 344 341 339 84 40 289 274 230 211 203 228 231 213 177 176 197 215 213 229 199 178 170 150 182 189 165 210 213 197 200 205 243 249 203 188 220 208 218 242 228 203 233 264 237 219 233 248 249 255 301 327 346 319 284 86 44 278 293 237 231 263 8 112 152 161 164 171 158 118 104 111 118 117
336 337 338 339 337 335 336 338 324 326 323 302 305 335 345 346 341 333 142 41 296 266 249 192 181 210 208 179 171 152 136 220 217 214 198 183 178 154 169 210 160 211 209 195 201 210 244 241 199 209 221 207 218 241 229 186 194 259 241 216 224 234 239 247 283 298 302 274 276 76 121 258 319 296 234 244 72 102 139 153 157 161 140 116 120 123 122 125
336 335 336 336 337 342 341 306 316 324 316 318 338 342 346 349 343 328 136 26 297 249 218 185 177 192 181 170 164 137 160 228 194 206 195 182 186 150 157 189 170 205 196 165 211 227 235 233 214 215 214 207 218 241 229 179 171 244 235 207 214 214 215 229 252 239 229 271 302 4 125 167 303 278 251 221 73 85 128 146 155 153 129 117 121 122 128 133
334 333 333 332 336 341 313 288 308 314 312 337 345 347 347 347 343 346 98 24 279 247 185 214 196 190 171 162 159 159 221 183 146 218 183 174 186 144 165 194 178 206 201 163 217 253 231 221 219 213 206 206 213 231 228 180 177 240 224 203 218 215 207 224 252 254 261 312 305 304 87 101 277 275 303 29 58 56 138 147 155 142 119 118 123 125 129 130
331 331 329 328 331 332 289 272 278 282 333 349 351 346 344 345 347 49 87 299 278 312 251 221 169 203 131 143 171 201 232 128 151 229 151 170 188 161 180 204 185 214 217 171 210 262 248 228 228 212 200 210 216 227 226 197 202 234 211 202 227 226 192 211 241 256 0 71 261 275 307 102 272 288 322 23 55 19 125 116 121 118 115 124 128 130 134 129
329 326 326 325 322 322 291 272 269 287 345 351 344 339 343 353 33 65 56 252 283 297 269 34 356 273 135 150 185 215 220 200 141 126 100 170 191 169 165 180 172 216 245 203 223 252 260 265 259 227 206 209 210 222 219 203 203 193 177 205 283 334 25 38 246 106 84 252 252 255 219 137 274 292 300 312 261 160 125 103 102 111 118 128 131 136 141 136
326 323 324 317 307 304 290 277 280 331 347 339 336 339 358 26 64 95 229 256 286 282 336 15 333 333 115 165 188 200 211 226 127 124 115 153 179 197 308 138 166 234 321 296 274 275 281 277 261 241 223 203 192 213 218 197 192 154 138 127 5 334 15 28 343 70 132 252 258 241 171 121 210 271 278 279 277 199 144 136 133 130 128 134 138 139 139 139
323 321 319 309 293 266 248 263 302 331 335 342 344 356 68 55 34 197 245 306 314 282 26 0 330 336 334 270 223 187 193 216 165 141 147 154 173 199 202 183 181 208 281 267 280 302 296 262 252 257 244 194 161 209 278 0 68 121 93 83 98 293 345 349 306 103 187 245 255 232 129 108 223 245 292 303 305 301 139 140 141 140 140 143 144 139 138 141
322 321 317 309 287 255 256 284 309 310 348 4 2 35 81 85 230 228 252 297 313 341 350 337 331 329 290 248 258 194 190 211 190 162 164 160 173 200 219 217 172 150 214 224 247 294 293 290 286 264 256 191 138 161 254 313 22 133 132 122 148 202 122 269 274 288 241 242 257 255 132 147 263 314 335 331 336 50 112 115 119 129 138 142 139 135 137 145
323 325 318 303 291 279 282 297 254 345 0 9 34 66 85 149 236 248 259 271 283 320 335 336 331 325 296 236 201 160 180 280 7 123 177 156 163 204 229 237 195 143 148 212 228 200 228 294 285 212 234 194 159 172 177 178 178 186 177 141 155 173 152 205 227 204 251 246 277 304 151 174 125 0 335 349 23 53 100 106 105 111 117 119 116 124 141 151
327 329 313 291 290 303 301 151 140 91 2 24 62 78 136 202 259 271 254 284 306 325 332 335 327 316 311 287 214 170 157 218 352 356 253 166 174 194 196 217 218 167 129 180 240 193 188 245 255 236 223 183 187 206 165 139 193 244 154 107 181 196 154 165 193 167 196 207 355 344 113 172 124 47 347 25 59 50 70 97 107 114 115 112 112 130 149 152
332 336 314 283 269 236 143 145 147 160 146 68 73 119 208 215 239 240 273 316 335 337 332 333 339 330 321 322 308 321 84 128 218 267 319 292 203 202 190 189 202 184 163 177 213 214 185 251 272 287 280 202 198 206 169 147 183 255 72 154 225 187 134 128 254 42 81 133 281 24 93 16 47 40 354 12 63 57 50 77 99 110 116 119 125 145 160 158
335 341 317 268 248 177 154 148 153 169 122 75 101 202 231 229 242 266 308 321 319 325 334 335 334 323 321 342 348 342 8 30 287 236 236 327 325 273 239 147 144 166 187 196 214 234 204 253 283 292 292 267 216 203 206 172 163 144 169 218 235 65 96 110 138 15 40 158 268 5 98 47 21 47 335 344 53 67 56 68 86 101 114 119 124 138 156 160
329 334 310 274 203 168 164 159 161 161 84 67 93 244 242 240 281 299 308 313 311 315 329 303 269 269 349 340 327 342 15 29 319 289 272 102 275 273 342 332 49 93 59 214 204 253 211 242 286 274 254 279 285 151 293 300 227 175 191 175 102 125 241 84 145 159 93 156 290 339 56 68 62 149 305 323 22 79 86 91 96 106 116 117 116 126 140 145
322 337 322 215 148 158 169 167 161 112 63 69 245 258 253 257 280 288 287 292 298 301 291 250 241 289 3 323 281 313 5 160 183 261 317 1 266 275 94 272 299 42 25 53 145 276 291 222 282 288 246 279 24 46 331 312 316 322 213 269 91 140 174 159 164 160 141 146 192 334 359 4 244 225 267 336 353 66 105 114 117 121 120 115 113 119 126 124
303 22 312 175 149 156 167 164 138 59 77 153 208 229 265 274 274 279 281 287 298 290 274 266 268 281 311 316 303 312 327 158 162 162 176 261 312 337 302 235 339 352 349 21 69 302 3 144 246 294 313 64 53 329 78 27 327 3 103 267 339 97 130 159 147 110 127 136 151 159 314 277 257 236 98 74 15 30 89 102 103 111 115 112 112 117 124 128
214 25 273 176 154 157 155 144 82 76 139 234 235 233 266 280 283 290 299 313 309 245 251 271 273 251 234 335 342 324 330 341 143 141 175 201 150 261 271 222 135 220 291 4 30 238 11 139 203 283 322 87 186 243 85 85 72 78 98 289 223 143 134 136 227 305 88 126 154 157 173 261 278 351 107 110 86 57 73 87 82 73 81 92 113 132 137 137
105 32 220 172 158 154 132 95 317 158 163 264 262 280 308 308 292 302 318 327 298 250 269 284 284 272 278 8 319 340 346 328 180 150 195 205 172 186 238 210 150 164 180 111 274 231 144 107 101 258 256 181 181 162 89 87 83 76 61 3 23 117 111 131 188 236 60 86 118 116 126 246 307 24 85 97 105 101 90 98 93 68 55 52 41 48 89 99
124 318 232 170 161 143 93 46 319 0 265 274 303 313 319 314 292 310 329 326 315 307 302 296 298 332 23 0 325 357 355 328 338 31 122 342 236 205 181 150 140 125 105 133 247 275 88 81 37 303 296 311 256 112 68 51 54 65 27 358 24 345 171 159 180 168 131 136 107 83 91 226 281 66 90 77 95 91 75 83 92 82 69 64 50 31 49 80
183 289 262 171 170 143 82 127 285 342 286 305 343 321 311 305 299 320 323 304 308 316 304 308 316 332 15 356 356 9 2 7 26 12 39 10 286 227 151 134 118 92 97 155 184 258 302 100 73 53 0 339 304 280 43 26 35 67 343 337 9 7 5 171 159 85 127 193 154 130 173 231 178 122 132 164 101 79 58 53 83 90 88 83 73 55 56 79
32 295 299 185 169 122 98 172 165 171 270 330 354 323 320 308 299 310 297 282 293 293 310 329 328 355 20 14 28 20 14 29 18 3 37 8 329 336 343 149 95 95 108 53 45 88 140 143 110 108 162 180 199 224 216 63 42 37 344 354 18 23 16 7 142 95 138 225 122 123 172 191 136 129 135 137 110 98 91 86 88 89 86 81 75 65 59 65
76 73 329 344 11 51 75 189 125 134 238 30 25 318 315 309 307 310 306 329 327 328 64 8 342 9 19 19 44 25 6 12 14 22 35 4 324 322 344 36 45 63 87 58 36 65 99 74 97 124 155 179 190 221 229 113 101 108 11 17 24 27 23 38 93 95 154 147 49 109 157 140 139 151 140 118 103 101 105 101 92 85 80 78 76 73 67 66
86 107 147 162 346 18 9 348 64 102 147 100 101 303 313 324 325 322 330 0 344 341 45 30 11 28 14 7 52 30 345 357 21 20 2 346 308 314 359 49 33 19 68 65 34 65 88 25 7 86 160 217 196 209 312 90 115 137 134 58 34 34 40 50 48 344 131 115 63 192 154 139 154 166 144 127 111 100 98 95 91 87 86 86 84 78 72 69
100 173 157 135 156 223 46 18 101 83 43 87 134 311 335 345 343 341 335 329 341 358 32 19 8 23 19 18 70 42 349 3 15 359 338 348 338 325 1 47 30 15 49 61 31 71 99 34 342 337 313 324 0 87 55 70 96 95 102 94 72 70 74 74 46 304 170 150 172 173 156 143 152 153 135 128 119 114 114 106 100 99 96 92 88 82 75 70
74 19 321 75 114 192 173 148 122 79 43 49 43 331 340 351 345 341 340 335 344 2 31 34 358 360 16 37 81 74 19 33 355 321 324 347 342 335 7 27 5 11 46 55 27 53 93 66 339 327 359 6 6 24 33 43 72 69 57 50 51 75 98 96 80 76 89 95 132 140 136 112 110 129 123 111 104 105 104 99 100 102 100 96 90 87 82 74
94 221 303 27 30 327 147 99 78 80 37 20 27 319 326 357 343 325 347 18 7 347 8 31 356 348 12 39 69 97 140 136 222 264 290 340 332 336 20 18 348 358 35 60 19 2 56 77 318 0 52 15 1 8 17 37 83 70 42 23 15 20 80 98 94 87 76 59 89 116 114 84 70 96 98 92 85 82 81 88 94 95 100 102 97 94 92 87
313 240 245 90 37 342 73 121 97 96 28 356 147 263 319 336 330 329 338 1 28 349 347 7 355 352 8 10 17 314 251 236 241 250 252 263 266 276 18 304 319 325 339 92 87 332 98 139 317 50 70 359 346 9 25 72 95 59 28 9 360 351 87 109 97 112 112 114 116 114 113 112 104 94 84 71 71 80 83 90 96 96 103 106 103 100 97 91
350 325 22 91 89 353 15 85 49 62 22 302 229 223 282 281 306 14 6 321 340 334 324 0 17 12 357 338 318 277 268 270 261 260 256 245 250 271 278 275 292 282 187 94 73 189 137 130 132 85 87 329 327 358 34 89 94 42 359 342 332 300 253 58 35 42 99 127 138 139 119 109 118 109 97 80 75 85 87 90 99 109 111 103 101 102 100 96